Wind_Speed
9 11 12 14 15 16 18 18 19 18 18 18 18 18 17 16 14 13 12 12 12 13 15 16 17 19 21 24 26 27 28 28 28 29 29 30 30 30 30 30 30 29 28
8 10 11 13 15 16 18 19 19 19 19 18 19 18 17 16 15 14 13 13 12 12 13 15 16 18 20 22 25 27 27 28 28 29 30 30 31 31 31 31 31 30 30
7 9 11 13 15 16 18 19 20 20 19 19 19 19 19 18 17 16 14 13 12 12 12 13 14 16 18 20 23 25 27 28 28 28 29 30 31 31 31 32 32 32 31
7 9 10 12 14 16 18 19 20 20 20 20 20 20 19 19 18 17 15 14 13 12 11 12 13 14 15 17 19 22 24 26 26 27 29 29 30 31 32 33 34 33 33
7 9 10 12 14 16 17 19 20 20 20 20 20 20 20 19 19 18 16 15 13 12 11 10 10 11 13 14 16 18 21 23 25 26 28 29 29 31 32 33 35 35 34
7 8 10 12 14 15 17 19 20 20 20 21 20 20 20 20 20 19 17 15 14 12 11 9 9 8 9 11 12 14 18 20 23 24 26 27 28 31 32 33 34 35 35
6 8 10 12 13 15 17 18 19 20 20 20 21 21 20 21 20 20 19 17 15 14 12 10 8 7 7 8 10 12 15 17 20 22 24 25 27 30 31 32 34 35 35
6 8 9 11 13 14 16 18 19 20 20 20 21 21 21 21 21 20 19 18 16 15 13 11 10 7 5 6 7 9 11 14 16 19 21 23 24 27 30 32 33 35 36
6 7 9 10 12 14 16 17 19 19 20 21 21 21 21 21 21 20 20 19 17 15 14 13 11 9 6 5 6 7 9 11 13 16 19 21 22 24 27 30 31 33 35
5 7 9 10 12 13 15 16 18 19 20 20 21 21 21 21 21 20 20 19 18 16 15 14 12 10 9 7 5 5 7 8 11 13 16 18 20 22 24 27 28 31 34
5 7 8 10 11 13 14 15 17 18 19 20 20 20 20 20 20 20 20 19 19 17 16 15 13 12 10 9 7 5 6 7 9 11 13 16 18 20 22 25 28 30 32
5 7 8 9 11 12 14 15 16 17 18 19 20 20 20 20 20 20 20 19 19 18 17 16 15 14 12 10 9 7 6 6 7 9 11 14 16 18 20 23 25 27 30
5 6 8 9 11 12 13 14 15 17 18 19 19 20 19 19 19 19 19 19 19 18 18 17 15 15 14 12 10 9 8 7 7 8 9 11 13 16 18 20 23 25 27
5 6 8 9 10 11 12 14 15 16 17 18 19 19 19 19 19 19 19 19 19 19 18 17 16 16 15 14 12 10 9 9 9 9 8 9 10 12 14 17 20 22 25
5 6 7 9 10 11 12 13 14 16 17 18 18 19 19 19 18 18 18 18 18 18 18 17 16 16 16 16 15 13 12 11 10 10 10 9 9 10 11 13 16 19 22
6 7 8 9 10 11 12 13 14 15 16 17 18 18 18 18 18 18 18 18 18 18 17 17 16 16 16 16 16 15 14 13 12 12 12 10 9 9 9 11 12 14 17
7 8 8 9 10 11 12 13 14 15 16 17 18 18 17 17 17 18 17 17 17 17 17 16 15 15 15 15 15 15 15 14 14 13 13 12 10 10 9 9 9 10 12
8 9 9 10 10 11 12 13 14 15 16 17 17 18 18 17 18 18 17 17 17 16 16 16 15 15 15 14 14 15 15 14 14 14 14 14 12 11 10 9 9 10 11
10 10 10 10 11 11 12 13 14 15 16 17 17 18 18 18 18 18 18 17 17 16 16 16 15 15 15 14 14 14 15 15 15 14 14 14 14 13 12 11 10 9 10
12 11 11 11 12 12 13 13 14 15 16 17 18 18 18 19 19 19 18 17 17 16 16 16 15 15 15 14 14 14 14 15 15 14 14 14 14 14 13 12 11 10 9
13 13 13 13 13 13 14 14 15 16 17 17 18 19 19 19 19 19 19 18 17 17 17 16 16 15 15 15 15 15 15 15 15 14 14 14 14 14 13 13 12 11 11
16 15 15 15 15 15 15 16 16 17 17 18 19 19 20 20 20 21 20 19 18 17 17 17 17 17 16 16 16 16 16 16 16 15 15 14 14 14 14 14 13 13 12
18 17 17 16 16 16 17 17 18 18 19 19 20 21 21 21 21 22 22 21 19 18 18 18 18 18 18 18 17 17 17 17 17 16 16 16 15 15 15 14 14 14 13
20 19 19 18 18 18 19 19 19 20 20 21 21 22 22 22 23 23 23 22 21 20 20 20 19 19 19 19 19 19 18 18 18 18 17 17 17 17 17 16 16 15 15
22 22 21 21 21 20 21 21 21 21 22 22 23 23 23 23 24 24 24 23 23 22 22 21 21 21 21 20 20 20 19 19 19 19 19 19 19 19 18 18 18 18 18
25 24 24 23 23 23 23 23 23 23 23 24 24 24 24 25 25 25 25 24 24 23 23 23 22 22 22 22 22 21 21 20 20 20 21 21 21 21 21 21 21 21 21
Wind_Direction
10 14 16 16 15 13 11 10 8 6 4 1 358 355 352 348 343 334 324 312 297 282 271 264 258 252 247 242 239 238 238 238 237 237 237 237 233 234 233 231 230 231 231
18 19 18 18 17 14 12 11 9 6 4 1 360 358 355 351 346 340 331 320 306 294 282 271 263 255 250 246 241 237 237 236 236 236 237 237 235 235 234 232 231 232 232
22 21 19 16 14 13 11 10 8 7 5 2 0 359 356 353 348 344 339 331 318 305 294 282 270 261 254 248 243 239 237 237 236 236 236 235 234 234 234 232 233 232 233
23 20 17 14 13 12 10 9 9 7 6 4 3 2 360 357 355 352 347 340 332 319 306 293 281 270 260 252 247 244 240 239 237 237 236 235 234 233 232 232 232 232 232
23 19 16 13 12 11 11 10 9 7 7 7 5 5 3 2 1 359 354 350 344 333 321 308 297 280 266 258 252 248 244 241 239 238 237 236 235 233 232 232 232 232 232
20 17 14 12 11 12 11 10 9 9 9 9 9 9 7 6 5 4 1 359 356 351 341 328 315 295 276 266 258 253 247 242 239 239 238 238 237 233 233 233 233 232 233
16 15 12 11 11 11 11 10 10 10 11 11 11 11 11 11 10 8 7 7 5 2 358 351 338 315 289 275 267 260 254 246 241 239 239 240 239 236 235 234 234 234 234
11 10 10 10 10 11 11 11 11 11 12 12 12 12 12 12 12 12 11 11 9 7 5 3 358 345 317 290 276 267 259 251 244 243 241 242 242 239 237 237 237 235 235
5 8 8 9 9 10 11 12 12 13 13 13 13 12 12 13 14 14 14 14 14 13 10 8 4 359 349 322 292 276 271 258 251 249 249 248 248 245 242 240 238 236 235
3 8 8 8 9 10 12 12 12 13 13 13 13 12 14 14 15 16 16 16 16 16 14 12 10 7 1 353 331 302 285 271 262 257 255 253 251 251 249 247 243 240 238
357 360 2 4 7 8 9 10 10 11 12 12 12 12 14 15 16 16 17 18 19 19 19 17 15 13 10 4 357 341 316 293 281 272 264 259 256 255 254 249 246 244 241
350 355 358 2 4 5 5 6 7 8 10 11 12 12 13 15 17 17 17 18 18 19 19 19 19 19 18 12 7 358 340 320 303 288 277 270 264 261 258 253 249 247 245
339 348 355 359 1 1 2 3 5 6 7 9 10 11 13 14 15 16 16 16 17 18 18 18 18 17 16 14 9 2 355 346 330 315 298 283 274 268 263 256 250 247 246
325 338 347 352 355 357 359 2 3 4 6 7 8 9 11 13 13 14 15 15 16 17 18 18 17 17 16 14 11 4 360 356 350 340 324 304 292 282 270 260 253 250 248
312 326 336 344 349 352 355 358 1 3 4 5 5 7 8 9 10 11 12 13 14 15 15 15 16 16 16 15 15 13 7 2 358 352 342 324 311 299 286 269 260 255 251
301 314 325 334 341 346 350 353 357 359 0 1 2 2 3 5 7 7 7 8 9 10 11 11 12 13 13 14 15 13 11 7 2 359 355 348 337 321 305 285 272 264 258
292 304 315 323 330 337 343 347 350 353 355 356 358 359 359 360 1 1 2 2 3 4 6 7 7 7 7 7 8 8 7 5 2 359 357 353 346 339 330 312 294 280 269
286 297 306 314 321 327 333 339 343 346 348 351 353 355 355 355 355 355 355 355 356 357 357 359 360 359 359 359 359 360 360 359 359 358 357 354 347 341 334 324 308 294 282
282 291 298 304 311 318 325 331 335 339 341 344 347 349 351 351 350 350 349 348 348 349 349 349 350 351 351 350 350 350 351 352 352 351 350 351 350 346 342 334 322 308 294
279 286 292 298 304 310 317 323 328 332 336 338 341 342 344 345 345 345 344 342 342 342 341 341 340 341 342 343 343 343 344 345 347 347 348 348 349 349 347 343 336 326 313
275 281 287 292 298 303 308 314 320 325 329 332 335 337 338 339 339 340 339 338 337 336 335 334 332 332 333 334 336 336 336 337 338 340 341 342 342 342 342 340 338 333 325
272 278 283 287 292 297 302 306 312 317 322 326 329 331 332 333 334 335 335 333 331 329 328 328 326 325 325 326 327 328 329 329 330 331 332 332 331 331 331 330 330 329 325
269 274 278 283 287 291 296 301 307 311 315 320 323 325 327 328 329 331 331 330 328 325 323 323 322 320 319 319 319 320 321 322 322 322 323 323 322 321 320 320 319 318 317
267 270 274 278 282 287 292 297 302 307 310 314 317 320 322 323 324 326 327 326 324 322 320 318 317 316 315 315 315 315 315 316 315 314 314 315 314 314 314 313 312 311 309
265 268 271 275 279 284 288 293 297 302 306 309 312 315 317 319 320 321 322 322 320 318 317 314 312 311 311 310 310 310 310 310 310 309 309 309 308 308 307 307 306 305 303
264 266 269 272 276 281 285 289 293 297 301 304 308 311 313 314 316 316 317 317 316 315 313 311 309 307 306 306 306 306 306 306 305 305 305 304 303 303 302 302 301 300 299
Height
5835 5832 5830 5827 5824 5821 5817 5813 5810 5806 5802 5798 5794 5790 5787 5784 5781 5778 5776 5775 5774 5773 5773 5773 5774 5775 5777 5780 5782 5786 5789 5793 5796 5800 5804 5807 5811 5815 5818 5822 5825 5829 5833
5834 5832 5830 5827 5824 5821 5817 5813 5809 5805 5802 5798 5794 5790 5786 5783 5780 5777 5774 5772 5771 5770 5769 5769 5769 5770 5772 5774 5776 5779 5783 5786 5790 5793 5797 5801 5805 5809 5812 5816 5819 5823 5827
5834 5832 5829 5827 5824 5821 5817 5813 5809 5805 5801 5797 5793 5789 5786 5782 5778 5775 5772 5770 5768 5766 5765 5765 5765 5766 5767 5768 5771 5773 5777 5780 5783 5787 5791 5794 5798 5802 5805 5809 5813 5817 5821
5833 5831 5829 5826 5824 5820 5817 5813 5809 5805 5801 5797 5793 5789 5785 5781 5777 5774 5770 5768 5765 5763 5762 5761 5761 5761 5762 5763 5765 5768 5770 5774 5777 5780 5784 5788 5791 5794 5799 5803 5806 5810 5814
5833 5831 5829 5826 5823 5820 5817 5813 5809 5805 5801 5797 5793 5789 5785 5781 5777 5773 5769 5766 5763 5761 5759 5758 5757 5757 5757 5759 5760 5762 5765 5767 5771 5774 5777 5780 5784 5787 5791 5795 5799 5803 5807
5832 5830 5828 5826 5823 5820 5817 5813 5810 5806 5801 5797 5793 5789 5785 5781 5777 5773 5769 5765 5762 5760 5757 5756 5754 5754 5754 5755 5756 5758 5760 5762 5765 5768 5771 5773 5776 5780 5784 5787 5791 5796 5800
5832 5830 5828 5826 5823 5820 5817 5814 5810 5806 5802 5798 5794 5790 5786 5781 5777 5773 5769 5765 5762 5759 5757 5755 5753 5752 5752 5752 5753 5754 5755 5757 5759 5762 5765 5767 5770 5773 5776 5780 5784 5788 5792
5831 5830 5828 5826 5823 5820 5817 5814 5810 5807 5803 5799 5795 5791 5786 5782 5778 5774 5770 5766 5763 5760 5757 5754 5753 5751 5751 5751 5751 5751 5752 5753 5755 5757 5759 5761 5763 5766 5769 5773 5776 5780 5784
5831 5830 5828 5825 5823 5820 5817 5814 5811 5807 5804 5800 5796 5791 5787 5783 5779 5775 5771 5767 5763 5760 5757 5755 5753 5751 5750 5749 5749 5749 5749 5750 5751 5753 5754 5756 5758 5760 5763 5765 5769 5773 5776
5831 5829 5827 5825 5823 5820 5818 5815 5811 5808 5804 5800 5797 5793 5788 5784 5780 5776 5772 5768 5765 5761 5758 5755 5753 5751 5750 5749 5748 5748 5748 5748 5749 5749 5750 5752 5753 5754 5756 5758 5761 5765 5768
5830 5829 5827 5825 5823 5820 5818 5815 5812 5809 5805 5801 5797 5793 5789 5785 5781 5778 5774 5770 5766 5763 5760 5757 5754 5752 5750 5749 5748 5747 5746 5746 5746 5746 5747 5747 5748 5749 5750 5752 5754 5757 5760
5829 5828 5826 5824 5822 5820 5817 5815 5812 5809 5806 5802 5798 5794 5791 5787 5783 5779 5775 5772 5768 5765 5761 5758 5756 5753 5751 5749 5748 5747 5746 5745 5744 5744 5744 5743 5744 5744 5745 5746 5747 5750 5753
5828 5827 5825 5824 5822 5819 5817 5815 5812 5809 5806 5803 5799 5795 5792 5788 5784 5781 5777 5773 5770 5766 5763 5760 5757 5755 5752 5750 5748 5747 5745 5744 5743 5742 5741 5740 5740 5739 5739 5740 5741 5743 5746
5827 5826 5824 5823 5821 5819 5817 5814 5812 5809 5806 5803 5800 5796 5792 5789 5785 5782 5778 5775 5771 5768 5765 5762 5759 5756 5753 5751 5748 5747 5745 5743 5742 5740 5739 5737 5736 5735 5735 5735 5735 5737 5739
5826 5825 5823 5822 5820 5818 5816 5814 5811 5809 5806 5803 5800 5796 5793 5789 5786 5783 5779 5776 5772 5769 5766 5763 5760 5757 5754 5752 5749 5747 5745 5743 5741 5739 5737 5735 5734 5732 5731 5730 5730 5731 5733
5824 5823 5822 5820 5819 5817 5815 5813 5811 5808 5805 5802 5799 5796 5793 5790 5786 5783 5780 5776 5773 5770 5767 5764 5761 5758 5755 5753 5750 5748 5745 5743 5741 5738 5736 5734 5732 5730 5728 5727 5726 5727 5727
5822 5821 5820 5818 5817 5815 5814 5812 5809 5807 5804 5802 5799 5796 5792 5789 5786 5783 5780 5777 5773 5770 5767 5764 5761 5759 5756 5753 5751 5748 5746 5743 5741 5738 5735 5733 5731 5728 5727 5725 5724 5723 5723
5819 5818 5817 5816 5815 5813 5812 5810 5808 5806 5803 5800 5797 5794 5791 5788 5785 5782 5779 5776 5773 5770 5767 5764 5761 5758 5756 5753 5751 5748 5746 5743 5740 5738 5735 5732 5730 5727 5725 5723 5722 5721 5720
5816 5815 5814 5813 5812 5811 5809 5808 5806 5804 5801 5799 5796 5793 5790 5787 5784 5781 5778 5775 5772 5769 5766 5763 5760 5758 5755 5752 5750 5747 5745 5742 5740 5737 5734 5732 5729 5727 5724 5722 5720 5719 5718
5812 5812 5811 5810 5809 5808 5806 5805 5803 5801 5799 5796 5794 5791 5788 5785 5782 5779 5776 5773 5770 5767 5764 5762 5759 5756 5754 5751 5749 5746 5744 5741 5739 5736 5734 5731 5729 5726 5724 5722 5720 5718 5716
5809 5808 5807 5806 5806 5804 5803 5802 5800 5798 5796 5793 5791 5788 5785 5783 5780 5777 5774 5771 5768 5765 5762 5760 5757 5754 5752 5749 5747 5744 5742 5739 5737 5734 5732 5730 5727 5725 5723 5720 5718 5716 5715
5804 5804 5803 5802 5802 5801 5799 5798 5796 5795 5793 5790 5788 5785 5782 5779 5777 5774 5771 5768 5765 5762 5759 5757 5754 5751 5749 5747 5744 5742 5740 5737 5735 5732 5730 5728 5726 5723 5721 5719 5717 5715 5713
5799 5799 5798 5798 5797 5796 5795 5794 5792 5790 5788 5786 5784 5781 5778 5776 5773 5770 5767 5764 5761 5759 5756 5753 5751 5748 5746 5743 5741 5739 5736 5734 5732 5730 5727 5725 5723 5720 5718 5716 5714 5712 5710
5793 5793 5793 5792 5792 5791 5790 5789 5787 5785 5783 5781 5779 5777 5774 5771 5769 5766 5763 5760 5757 5754 5752 5749 5747 5744 5742 5739 5737 5735 5732 5730 5728 5726 5724 5722 5719 5717 5715 5713 5711 5709 5707
5787 5787 5787 5786 5786 5785 5784 5783 5781 5780 5778 5776 5774 5772 5769 5766 5764 5761 5758 5755 5753 5750 5747 5744 5742 5739 5737 5735 5732 5730 5728 5726 5724 5721 5719 5717 5715 5713 5711 5709 5707 5705 5703
5780 5780 5780 5779 5779 5778 5778 5776 5775 5774 5772 5770 5768 5766 5763 5761 5758 5756 5753 5750 5747 5745 5742 5739 5736 5734 5732 5729 5727 5725 5723 5721 5719 5717 5714 5712 5710 5708 5706 5704 5702 5700 5698